Lafayette, LA

5:59 PM CDT on July 26, 2016 (GMT -0500)
Lafayette Regional

Weather History for KLFT - April, 2013

Change the Weather History Date:

Tuesday, April 16, 2013

  Actual Average Record
Temperature  
Mean Temperature 78 °F 69 °F  
Max Temperature 82 °F 79 °F 92 °F (1894)
Min Temperature 74 °F 59 °F 38 °F (1928)
Degree Days  
Heating Degree Days 0 1  
Month to date heating degree days 35 31  
Since 1 July heating degree days 1280 1411  
Cooling Degree Days 13 5  
Month to date cooling degree days 53 68  
Year to date cooling degree days 113 163  
Growing Degree Days 28 (Base 50)    
Moisture  
Dew Point 71 °F    
Average Humidity 81    
Maximum Humidity 93    
Minimum Humidity 69    
Precipitation  
Precipitation 0.00 in 0.14 in 2.51 in (1957)
Month to date precipitation 4.56 1.97  
Year to date precipitation 24.63 15.88  
Snow  
Snow 0.00 in 0.00 in 0.00 in ()
Month to date snowfall 0.0 0.0  
Since 1 July snowfall 0.0 T  
Snow Depth 0.00 in    
Sea Level Pressure  
Sea Level Pressure 30.00 in    
Wind  
Wind Speed 7 mph (SSE)    
Max Wind Speed 16 mph    
Max Gust Speed 24 mph    
Visibility 9 miles    
Events      
T = Trace of Precipitation, MM = Missing Value Source: NWS Daily Summary

Daily Weather History Graph

Daily Weather History Graph

Search for Another Location

Airport or City:

Trip Planner

Search our weather history database for the weather conditions in past years. The results will help you decide how hot, cold, wet, or windy it might be!

Date:

Astronomy

Apr. 16, 2013 Rise Set
Actual Time 6:39 AM CDT 7:36 PM CDT
Civil Twilight 6:14 AM CDT 8:00 PM CDT
Nautical Twilight 5:45 AM CDT 8:30 PM CDT
Astronomical Twilight 5:15 AM CDT 9:00 PM CDT
Moon 11:09 AM CDT (4/16) 12:22 AM CDT (4/16)
Length of Visible Light 13h 46m
Length of Day
12h 56m
Waxing Crescent, 33% of the Moon is Illuminated
Apr 16
Waxing Crescent
Apr 18
First Quarter
Apr 25
Full
May 2
Last Quarter
May 9
New

Hourly Weather History & Observations

Time (CDT) Temp. Heat Index Dew Point Humidity Pressure Visibility Wind Dir Wind Speed Gust Speed Precip Events Conditions
12:53 AM 73.9 °F - 72.0 °F 93% 29.93 in 5.0 mi SSE 6.9 mph - N/A   Overcast
1:53 AM 73.9 °F - 72.0 °F 93% 29.92 in 3.0 mi SSE 6.9 mph 16.1 mph 0.01 in   Overcast
2:53 AM 73.9 °F - 72.0 °F 93% 29.93 in 5.0 mi SSE 8.1 mph - 0.00 in   Overcast
3:53 AM 73.9 °F - 72.0 °F 93% 29.93 in 7.0 mi SSE 8.1 mph 16.1 mph N/A   Overcast
4:53 AM 73.9 °F - 71.1 °F 91% 29.93 in 7.0 mi SSE 4.6 mph - N/A   Overcast
5:39 AM 75.2 °F - 71.6 °F 89% 29.95 in 9.0 mi Variable 6.9 mph - N/A   Overcast
5:53 AM 73.9 °F - 71.1 °F 91% 29.95 in 7.0 mi Variable 5.8 mph - N/A   Overcast
6:53 AM 73.4 °F - 71.6 °F 94% 29.97 in 9.0 mi Variable 4.6 mph - N/A   Overcast
7:30 AM 73.4 °F - 71.6 °F 94% 29.98 in 9.0 mi SSE 5.8 mph - N/A   Overcast
7:53 AM 73.9 °F - 71.1 °F 91% 29.99 in 10.0 mi Variable 4.6 mph - N/A   Overcast
8:53 AM 75.0 °F - 70.0 °F 84% 29.99 in 10.0 mi SSE 6.9 mph - N/A   Overcast
9:00 AM 75.2 °F - 69.8 °F 83% 29.99 in 10.0 mi Variable 4.6 mph - N/A   Overcast
9:09 AM 75.2 °F - 69.8 °F 83% 30.00 in 10.0 mi Variable 4.6 mph - N/A   Overcast
9:53 AM 75.9 °F - 71.1 °F 85% 30.01 in 10.0 mi SSE 10.4 mph - N/A   Overcast
10:53 AM 78.1 °F - 71.1 °F 79% 30.04 in 10.0 mi SSE 9.2 mph - N/A   Overcast
11:53 AM 78.1 °F - 71.1 °F 79% 30.04 in 10.0 mi South 6.9 mph 16.1 mph N/A   Overcast
12:05 PM 78.8 °F - 71.6 °F 78% 30.04 in 10.0 mi SSE 11.5 mph 16.1 mph N/A   Overcast
12:53 PM 80.1 °F 83.8 °F 72.0 °F 76% 30.03 in 10.0 mi South 12.7 mph - N/A   Overcast
1:00 PM 80.6 °F 84.6 °F 71.6 °F 74% 30.03 in 10.0 mi SSE 10.4 mph - N/A   Overcast
1:53 PM 82.0 °F 86.7 °F 72.0 °F 71% 30.02 in 10.0 mi SSE 8.1 mph - N/A   Overcast
2:00 PM 80.6 °F 84.6 °F 71.6 °F 74% 30.02 in 10.0 mi South 12.7 mph 17.3 mph N/A   Overcast
2:53 PM 82.0 °F 86.7 °F 72.0 °F 71% 30.01 in 10.0 mi South 12.7 mph 20.7 mph N/A   Mostly Cloudy
3:29 PM 80.6 °F 84.6 °F 71.6 °F 74% 30.00 in 10.0 mi South 16.1 mph 23.0 mph N/A   Mostly Cloudy
3:36 PM 82.4 °F 87.2 °F 71.6 °F 70% 30.01 in 10.0 mi SSE 11.5 mph 21.9 mph N/A   Mostly Cloudy
3:53 PM 81.0 °F 84.9 °F 71.1 °F 72% 30.01 in 10.0 mi SSE 10.4 mph 21.9 mph N/A   Mostly Cloudy
4:53 PM 81.0 °F 85.2 °F 72.0 °F 74% 30.01 in 10.0 mi South 11.5 mph 20.7 mph N/A   Mostly Cloudy
5:02 PM 80.6 °F 84.6 °F 71.6 °F 74% 30.01 in 10.0 mi South 12.7 mph 21.9 mph N/A   Mostly Cloudy
5:51 PM 78.8 °F - 71.6 °F 78% 30.01 in 10.0 mi South 8.1 mph - N/A   Overcast
5:53 PM 79.0 °F - 71.1 °F 77% 30.01 in 10.0 mi South 6.9 mph - N/A   Overcast
6:53 PM 78.1 °F - 71.1 °F 79% 30.01 in 10.0 mi South 6.9 mph - N/A   Mostly Cloudy
7:53 PM 78.1 °F - 71.1 °F 79% 30.01 in 10.0 mi SSE 5.8 mph - N/A   Mostly Cloudy
8:00 PM 77.0 °F - 71.6 °F 83% 30.01 in 10.0 mi SSE 8.1 mph - N/A   Mostly Cloudy
8:17 PM 77.0 °F - 71.6 °F 83% 30.02 in 10.0 mi South 6.9 mph - N/A   Mostly Cloudy
8:53 PM 77.0 °F - 71.1 °F 82% 30.03 in 10.0 mi SSE 6.9 mph - N/A   Overcast
9:53 PM 77.0 °F - 71.1 °F 82% 30.04 in 10.0 mi SSE 4.6 mph - N/A   Partly Cloudy
10:53 PM 75.9 °F - 71.1 °F 85% 30.04 in 10.0 mi Variable 4.6 mph - N/A   Partly Cloudy
11:22 PM 75.2 °F - 71.6 °F 89% 30.04 in 10.0 mi SSE 4.6 mph - N/A   Mostly Cloudy
11:45 PM 75.2 °F - 71.6 °F 89% 30.03 in 10.0 mi SE 8.1 mph - N/A   Overcast
11:53 PM 75.9 °F - 71.1 °F 85% 30.03 in 9.0 mi Variable 4.6 mph - N/A   Overcast